FW2709 Weather Reports


time (UTC)temp
C
wind
direction
speed
KPH
gust
KPH
rain 1hr
cm
rain 24hr
cm
rain mn
cm
humidity
%
barometer
mb
20260509044609 6 254 0.0 0.0 0.00 0.00 0.03 65 1005.2
20260509043049 6 253 0.0 0.0 0.00 0.00 0.03 67 1005.4
20260509041519 6 261 1.6 0.0 0.00 0.00 0.03 64 1005.0
20260509040040 6 250 1.6 0.0 0.00 0.00 0.03 64 1005.3
20260509034517 6 251 0.0 0.0 0.00 0.00 0.03 60 1004.9
20260509033111 7 247 0.0 0.0 0.00 0.00 0.03 59 1004.9
20260509031542 7 251 0.0 0.0 0.00 0.00 0.03 59 1004.3
20260509030109 8 247 1.6 0.0 0.00 0.00 0.03 59 1005.3
20260509024559 8 299 0.0 0.0 0.00 0.00 0.03 57 1004.7
20260509023029 9 37 1.6 0.0 0.00 0.00 0.03 55 1004.0
20260509021508 10 34 0.0 0.0 0.00 0.00 0.03 54 1003.8
20260509020024 10 37 0.0 0.0 0.00 0.00 0.03 53 1004.4
20260509014501 11 34 0.0 0.0 0.00 0.00 0.03 52 1003.6
20260509013055 11 0 1.6 0.0 0.00 0.00 0.03 51 1003.6
20260509011519 12 174 1.6 0.0 0.00 0.00 0.03 49 1003.3
20260509010034 12 171 6.4 0.0 0.00 0.00 0.03 50 1005.6
20260509004504 13 133 0.0 0.0 0.00 0.00 0.03 37 1005.2
20260509003052 13 62 0.0 0.0 0.00 0.00 0.03 36 1005.1
20260509001524 14 59 1.6 0.0 0.00 0.00 0.03 34 1004.5
20260509000047 14 64 1.6 0.0 0.00 0.00 0.03 30 1005.4
20260508234520 14 52 1.6 0.0 0.00 0.00 0.03 32 1005.1
20260508233107 15 28 1.6 0.0 0.00 0.00 0.03 32 1004.5
20260508231557 15 66 1.6 0.0 0.00 0.00 0.03 30 1004.4
20260508230007 16 66 3.2 0.0 0.00 0.00 0.03 28 1004.1
20260508224611 15 20 3.2 0.0 0.00 0.00 0.03 30 1004.0
20260508223032 16 68 3.2 0.0 0.00 0.00 0.03 31 1003.5
20260508221516 15 90 3.2 0.0 0.00 0.00 0.03 30 1004.1
20260508220035 15 69 3.2 0.0 0.00 0.00 0.03 30 1004.6
20260508214611 16 49 3.2 0.0 0.00 0.00 0.03 36 1004.6
20260508213041 15 73 3.2 0.0 0.00 0.00 0.03 31 1004.9
20260508211503 15 117 1.6 0.0 0.00 0.00 0.03 36 1004.7
20260508210020 15 23 4.8 0.0 0.00 0.00 0.03 31 1006.1
20260508204603 15 35 4.8 0.0 0.00 0.00 0.03 35 1005.7
20260508203048 15 359 3.2 0.0 0.00 0.00 0.03 31 1006.3
20260508201524 15 25 4.8 0.0 0.00 0.00 0.03 28 1005.9
20260508200109 15 326 4.8 0.0 0.00 0.00 0.03 32 1005.2
20260508194533 15 359 6.4 0.0 0.00 0.00 0.03 32 1005.4
20260508193107 15 44 3.2 0.0 0.00 0.00 0.03 33 1005.6
20260508191535 15 11 4.8 0.0 0.00 0.00 0.03 30 1006.5
20260508190056 15 51 3.2 0.0 0.00 0.00 0.03 33 1005.8
20260508184523 14 322 4.8 0.0 0.00 0.00 0.03 33 1006.4
20260508183051 13 161 3.2 0.0 0.00 0.00 0.03 35 1007.2
20260508181508 12 17 3.2 0.0 0.00 0.00 0.03 37 1007.3
20260508180023 12 44 3.2 0.0 0.00 0.00 0.03 35 1007.6
20260508174607 12 23 3.2 0.0 0.00 0.00 0.03 35 1007.7
20260508173029 12 64 1.6 0.0 0.00 0.00 0.03 39 1008.1
20260508171608 12 147 1.6 0.0 0.00 0.00 0.03 35 1008.5
20260508170012 11 147 1.6 0.0 0.00 0.00 0.03 40 1007.2
20260508164558 11 167 1.6 0.0 0.00 0.00 0.03 37 1007.2
20260508163030 11 140 1.6 0.0 0.00 0.00 0.03 41 1007.2
20260508161511 11 62 1.6 0.0 0.00 0.00 0.03 37 1007.3
20260508160100 11 75 1.6 0.0 0.00 0.00 0.03 37 1007.5
20260508154528 11 79 1.6 0.0 0.00 0.00 0.03 40 1007.1
20260508153049 11 229 1.6 0.0 0.00 0.00 0.03 38 1007.1
20260508151529 10 34 1.6 0.0 0.00 0.00 0.03 41 1008.4
20260508150125 10 90 1.6 0.0 0.00 0.00 0.03 45 1006.9
20260508144546 10 104 1.6 0.0 0.00 0.00 0.03 51 1006.6
20260508143034 8 117 1.6 0.0 0.00 0.00 0.03 53 1006.7
20260508141608 8 112 0.0 0.0 0.00 0.00 0.03 58 1007.2
20260508140034 8 96 1.6 0.0 0.00 0.00 0.03 63 1007.4
20260508134558 6 96 1.6 0.0 0.00 0.00 0.03 69 1008.4
20260508133018 5 55 0.0 0.0 0.00 0.00 0.03 75 1008.9
20260508131559 3 354 0.0 0.0 0.00 0.00 0.03 80 1009.4
20260508130106 2 359 1.6 0.0 0.00 0.00 0.03 82 1009.2
20260508124538 2 288 0.0 0.0 0.00 0.00 0.03 85 1009.8
20260508123012 2 261 1.6 0.0 0.00 0.00 0.03 86 1009.1
20260508121552 2 257 1.6 0.0 0.00 0.00 0.03 87 1010.0
20260508114544 1 349 3.2 0.0 0.00 0.00 0.03 85 1009.8
20260508113039 1 288 1.6 0.0 0.00 0.00 0.03 78 1009.0
20260508111506 2 176 1.6 0.0 0.00 0.00 0.03 72 1007.6
20260508110030 2 181 1.6 0.0 0.00 0.00 0.03 72 1006.5
20260508104507 2 174 1.6 0.0 0.00 0.00 0.03 76 1006.5
20260508103105 1 62 1.6 0.0 0.00 0.00 0.03 84 1007.2
20260508101517 1 155 1.6 0.0 0.00 0.00 0.03 86 1007.8
20260508100036 1 174 0.0 0.0 0.00 0.00 0.03 85 1006.5
20260508094517 1 175 1.6 0.0 0.00 0.00 0.03 83 1007.0
20260508093102 1 176 1.6 0.0 0.00 0.00 0.00 85 1006.7
20260508091530 1 176 1.6 0.0 0.00 0.00 0.00 87 1006.6
20260508090049 1 176 1.6 0.0 0.00 0.00 0.00 87 1006.9
20260508084503 1 165 1.6 0.0 0.00 0.00 0.00 86 1006.8
20260508083052 1 167 1.6 0.0 0.00 0.00 0.00 86 1006.4
20260508081517 2 167 1.6 0.0 0.00 0.00 0.00 86 1006.3
20260508080038 2 167 1.6 0.0 0.00 0.00 0.00 88 1006.9
20260508074518 2 196 1.6 0.0 0.00 0.00 0.00 87 1007.5
20260508073108 2 189 1.6 0.0 0.00 0.00 0.00 88 1007.1
20260508071541 2 155 0.0 0.0 0.00 0.00 0.00 87 1007.6
20260508070059 2 158 1.6 0.0 0.00 0.00 0.00 86 1007.6
20260508064551 2 154 1.6 0.0 0.00 0.00 0.00 87 1007.6
20260508063111 2 175 0.0 0.0 0.00 0.00 0.00 86 1007.6
20260508061549 2 160 1.6 0.0 0.00 0.00 0.00 86 1007.6
20260508060049 2 138 0.0 0.0 0.00 0.00 0.00 85 1007.8
20260508054519 3 124 1.6 0.0 0.00 0.00 0.00 84 1007.3
20260508053052 3 121 1.6 0.0 0.00 0.00 0.00 82 1007.7
20260508051525 3 145 1.6 0.0 0.00 0.00 0.00 82 1007.8
20260508050036 4 106 1.6 0.0 0.00 0.00 0.03 79 1009.3